RH
35 40 44 47 50 53 49 45 40 33 30 33 38 45 45 44 41 38 34 30 29 29 30 31 31 31 32 31 32 32 32 30 31 34 60 81 86 81 93 95 96 93 96
38 41 45 49 51 51 51 50 45 38 33 35 40 44 44 44 42 38 33 29 29 29 31 32 33 34 35 35 34 34 34 33 32 31 35 61 74 88 90 91 88 82 82
37 42 45 49 52 53 52 53 50 43 37 37 40 43 44 46 43 39 34 30 30 30 32 33 35 37 38 38 38 38 38 38 37 34 31 38 53 57 68 82 85 92 82
42 43 45 47 50 52 56 59 57 49 42 39 41 43 46 48 45 42 37 32 31 32 33 34 36 38 39 40 40 41 42 42 41 38 36 35 37 44 55 65 58 58 65
38 39 44 45 50 56 59 63 62 56 48 42 42 46 47 47 46 44 43 38 32 33 34 35 36 38 39 40 42 43 44 45 45 42 39 39 41 45 48 52 60 51 45
47 50 52 53 57 61 65 67 67 64 55 48 44 43 43 46 46 45 48 40 34 35 36 36 37 37 38 40 42 44 46 48 48 47 44 43 46 51 57 58 55 55 52
60 56 55 57 64 65 66 69 71 70 63 55 48 43 42 44 47 49 47 38 36 38 38 37 36 37 38 40 43 46 49 50 50 50 47 46 47 51 56 61 63 62 58
81 73 71 70 71 73 74 76 79 76 70 63 54 46 42 42 43 43 41 39 39 39 36 36 36 38 40 42 45 50 53 54 54 52 50 48 48 51 56 60 63 62 58
93 92 90 86 87 85 85 85 82 78 74 70 61 53 48 44 42 42 42 42 41 40 39 39 40 43 44 46 50 57 60 58 57 56 55 53 51 52 55 59 63 69 73
92 94 93 94 94 93 92 87 84 82 79 74 68 64 58 52 47 44 43 44 45 44 45 54 72 63 51 56 60 63 63 60 59 58 57 56 56 57 59 60 61 66 75
88 92 96 97 97 95 95 90 88 84 78 73 70 68 64 61 58 56 54 52 50 51 70 93 84 64 66 68 73 76 78 74 67 63 62 62 64 66 67 67 66 65 71
89 83 82 85 87 89 92 93 95 96 92 92 93 76 66 64 63 61 60 76 93 94 95 95 95 95 93 93 95 94 89 78 69 66 67 66 72 73 76 76 80 75 69
100 100 100 99 100 97 98 98 98 97 98 97 96 96 96 96 95 93 95 94 91 94 94 95 94 93 95 94 89 82 76 70 68 68 70 70 77 77 78 79 82 86 85
99 97 97 97 96 97 96 97 97 96 96 96 97 97 97 95 94 93 95 98 94 90 92 93 92 91 89 87 85 81 76 69 69 70 70 73 78 81 83 86 82 80 82
96 96 96 96 96 96 96 96 96 96 96 96 96 96 96 96 95 95 94 94 98 96 95 96 95 93 91 91 90 89 88 88 86 80 77 76 77 82 86 92 92 87 80
96 96 96 96 96 96 96 96 96 96 96 96 92 86 82 84 87 88 91 95 96 96 98 98 95 92 93 92 95 100 100 94 90 88 85 85 88 87 85 100 100 98 93
96 96 95 95 95 95 95 95 95 94 83 70 69 71 74 76 77 81 88 93 93 94 93 93 91 91 91 89 93 100 98 98 99 95 94 93 88 92 93 82 80 96 98
95 95 95 95 95 95 94 81 64 61 58 60 64 67 67 66 68 69 72 76 78 82 81 80 80 84 86 86 100 100 99 96 97 97 98 97 92 87 94 95 84 81 87
95 95 95 96 94 77 68 61 56 55 56 60 60 56 57 58 59 59 58 59 61 64 66 70 73 75 78 84 98 100 99 96 92 90 88 90 92 87 87 100 94 83 74
96 95 95 89 71 65 59 55 47 45 44 42 42 43 43 42 41 42 44 47 51 54 58 62 68 72 75 75 94 100 100 98 92 85 84 85 100 95 96 99 94 91 73
95 89 74 62 57 58 53 46 40 36 36 36 31 24 22 22 23 25 28 35 41 48 52 58 59 64 71 74 75 90 100 100 100 100 90 80 75 97 97 98 97 96 92
81 60 50 44 45 48 43 26 20 24 21 17 15 16 16 17 19 24 26 30 35 40 45 48 48 53 57 60 67 76 100 100 96 96 93 84 91 98 96 95 98 93 96
56 53 42 30 26 27 18 17 17 18 19 20 20 21 23 23 23 26 26 26 27 32 36 42 47 47 48 55 62 81 100 99 96 96 97 98 100 98 94 95 97 98 95
42 31 28 27 19 19 19 22 25 27 29 29 30 31 32 31 31 30 30 32 35 37 44 54 63 70 74 75 72 74 74 76 83 85 89 91 98 97 96 98 100 93 95
23 29 32 24 24 29 34 39 44 48 50 51 49 49 49 47 44 41 42 46 52 79 98 98 98 99 97 90 92 94 92 83 72 72 70 66 70 70 76 77 89 97 80
32 31 34 42 48 54 57 57 62 68 68 66 64 64 65 62 58 57 56 54 81 100 100 100 98 96 98 95 93 93 95 93 97 97 97 94 80 69 65 63 55 83 97
Wind_Speed
25 24 24 24 24 21 20 18 15 14 13 11 10 9 8 7 6 5 4 4 3 1 1 2 4 5 6 7 7 7 6 6 6 5 4 4 4 5 6 6 4 4 5
27 24 26 27 27 23 20 19 17 15 13 12 11 11 10 9 8 7 7 6 4 3 2 1 3 4 5 7 7 8 8 7 6 5 4 2 4 4 2 3 2 3 5
27 26 27 28 27 25 22 19 18 16 14 14 15 13 12 11 11 10 9 8 6 6 5 4 4 5 5 6 7 7 8 9 8 6 3 2 2 6 7 7 8 6 7
22 25 27 28 28 25 21 18 17 17 16 16 16 14 13 12 12 11 11 10 9 8 7 6 6 7 7 8 9 9 9 8 9 9 7 5 7 4 4 7 7 6 8
15 21 25 25 26 25 22 19 17 17 17 17 16 16 16 15 13 13 13 12 11 10 9 8 8 8 8 8 9 10 11 11 10 9 9 8 8 8 6 8 8 11 9
11 13 18 20 23 24 22 19 16 16 17 17 17 17 16 16 16 15 15 14 13 12 11 10 9 9 9 10 10 11 12 12 12 11 10 10 8 9 8 10 14 13 11
12 13 14 17 20 23 23 20 18 17 17 16 16 16 16 16 15 14 14 14 14 13 12 12 11 10 10 11 11 11 11 12 12 12 12 11 12 11 11 12 13 14 15
14 15 14 14 16 21 22 19 16 15 14 14 15 14 14 14 14 14 14 14 14 15 15 14 13 13 13 13 13 12 12 12 12 13 13 13 13 13 13 12 12 14 13
14 16 16 16 17 17 16 14 13 13 12 12 12 12 12 12 13 13 13 14 14 14 14 13 13 14 15 14 14 13 13 13 13 13 13 14 14 15 14 14 14 13 9
13 14 15 14 15 15 16 15 14 13 11 10 10 10 10 10 11 11 12 12 13 13 13 14 16 17 16 15 15 14 14 14 14 14 15 15 15 15 15 15 15 15 14
13 14 14 13 12 12 12 12 11 11 10 10 9 9 9 9 9 10 10 11 12 14 18 19 17 16 16 15 15 14 15 15 15 16 16 16 16 16 16 16 17 17 17
10 12 13 12 11 10 10 10 10 9 8 8 7 7 8 9 9 10 11 14 17 20 20 18 17 18 19 19 18 18 17 17 17 18 18 18 18 18 18 18 18 18 18
10 9 9 9 7 7 5 6 5 6 7 9 10 10 10 11 12 14 16 18 15 13 13 16 16 17 17 17 16 17 17 18 19 19 20 19 19 19 18 17 18 18 19
13 10 8 8 7 6 5 4 4 3 3 4 7 9 10 10 11 11 10 11 12 13 15 15 15 16 18 19 18 19 20 21 21 20 20 20 20 20 19 19 18 17 18
13 11 10 9 7 5 3 2 1 1 1 2 4 5 6 8 9 10 11 12 13 13 14 16 17 18 20 21 21 22 23 23 22 21 21 21 20 20 21 20 20 19 19
14 11 9 7 6 3 2 1 2 2 3 4 5 7 8 9 10 11 13 15 15 15 17 19 20 21 23 23 23 20 22 23 24 23 22 22 22 22 21 20 20 22 21
12 9 7 5 4 1 1 3 5 6 6 7 8 9 10 11 12 13 15 17 18 19 20 22 23 24 24 24 23 19 21 24 25 24 24 24 24 24 25 24 23 24 23
9 5 4 3 1 2 4 5 7 8 9 9 10 11 13 14 15 16 17 18 19 21 22 23 23 25 25 25 22 21 23 25 26 26 25 25 26 27 26 26 26 27 28
7 3 2 3 4 5 6 7 8 10 11 12 13 14 16 18 19 20 20 21 22 23 23 24 25 25 26 24 23 21 23 27 29 30 30 30 31 30 28 27 29 29 29
1 2 4 6 8 9 10 11 12 12 14 15 17 18 20 22 22 23 23 24 23 25 25 26 26 25 27 25 25 23 25 29 31 32 31 31 29 28 27 28 30 30 30
3 6 7 9 10 13 14 14 16 16 17 18 20 20 20 22 23 24 24 25 26 26 27 28 27 28 28 29 28 25 25 28 29 29 31 31 29 27 28 28 30 33 28
7 9 10 11 13 15 17 17 16 17 19 21 21 21 21 21 22 23 24 24 25 26 28 28 30 30 29 28 28 26 24 25 28 31 31 31 26 25 25 26 27 28 27
12 13 14 14 13 15 17 17 17 20 21 21 21 22 22 22 21 24 25 26 26 27 28 28 30 30 28 26 25 23 22 24 27 30 30 27 26 26 26 27 27 26 26
16 17 16 15 16 16 16 18 20 21 22 24 24 24 25 24 24 25 25 26 26 26 26 26 26 26 26 24 22 22 22 23 25 27 28 29 28 27 27 22 28 27 29
18 17 17 20 20 20 20 19 21 22 24 25 25 25 26 26 26 25 24 23 24 23 25 28 30 31 31 29 25 23 25 25 23 22 24 26 26 29 34 36 28 26 26
18 21 21 22 23 23 23 22 23 24 25 27 27 27 28 27 26 25 25 21 21 21 22 24 25 29 28 28 28 27 28 29 29 29 28 35 33 28 21 26 28 32 24
Wind_Direction
222 216 212 210 207 210 212 214 219 220 220 219 214 209 205 205 209 212 209 207 208 202 33 20 11 9 0 5 11 14 22 15 8 353 345 15 23 15 44 44 19 321 307
221 214 210 210 210 213 212 214 217 222 220 217 216 215 216 219 222 223 225 222 225 236 248 310 331 340 350 348 347 349 352 358 1 351 335 298 288 281 285 301 305 302 311
214 209 209 210 210 212 215 215 217 221 222 220 221 221 226 226 227 229 231 230 232 240 247 256 282 300 317 325 328 333 336 339 341 343 343 307 286 318 284 278 265 267 282
213 211 210 209 210 211 211 214 217 222 225 226 227 231 234 233 232 231 234 237 239 243 249 255 267 282 295 305 313 320 322 324 323 327 329 310 289 287 289 308 312 303 292
204 207 209 211 210 208 209 211 216 223 227 232 232 233 234 234 234 238 239 240 242 245 248 255 266 280 292 297 302 307 310 311 313 315 313 308 303 295 291 297 301 311 310
163 181 199 209 211 206 208 212 220 226 231 234 236 239 241 241 243 244 243 244 247 249 253 258 267 278 287 292 294 297 297 299 302 304 303 301 296 291 291 293 300 306 304
147 161 179 193 202 206 208 213 220 226 231 236 239 242 244 246 248 247 247 249 253 257 260 263 267 273 281 286 289 287 284 285 288 292 296 296 294 291 287 288 295 301 305
129 139 148 164 182 194 202 209 218 222 224 231 240 243 245 248 249 247 248 251 255 259 264 267 269 274 278 281 285 287 286 283 281 281 285 288 288 288 289 289 291 297 294
121 129 141 153 164 179 193 201 208 213 218 226 235 242 245 245 247 250 253 254 257 259 261 263 267 273 277 277 277 279 280 279 277 277 277 279 282 283 284 285 287 286 293
121 125 133 142 155 168 181 187 197 203 210 220 230 236 242 243 245 246 247 250 253 256 259 267 276 278 276 278 282 283 283 282 281 278 277 277 276 273 273 275 276 274 273
122 124 128 137 149 163 175 180 192 202 205 212 226 234 240 242 243 247 252 259 265 269 276 278 276 275 276 276 276 277 280 283 284 285 282 279 277 275 271 269 269 268 267
129 133 135 136 144 153 166 178 181 198 198 211 230 245 250 252 256 258 256 270 273 277 276 275 275 275 276 278 281 281 281 283 283 282 279 277 275 274 275 272 265 261 262
143 142 142 144 154 160 187 190 202 225 245 247 249 253 258 261 263 269 277 281 280 275 276 282 278 276 277 275 276 279 282 283 284 283 280 277 272 272 272 272 267 261 258
155 155 143 132 133 136 144 150 152 181 219 230 241 249 258 271 276 277 279 281 277 276 277 274 274 279 280 280 280 280 280 281 282 279 276 273 270 271 270 268 266 265 261
150 149 142 131 132 131 136 132 138 183 259 277 280 290 296 291 286 284 280 275 273 276 276 274 277 278 280 282 284 280 278 278 275 273 272 269 267 268 269 269 268 266 266
147 142 132 125 119 109 88 50 5 343 333 312 308 303 296 291 290 285 281 273 270 271 271 274 279 282 283 285 282 281 281 279 276 275 271 269 266 264 266 257 258 273 270
139 136 133 124 124 122 14 350 340 334 325 319 312 305 299 297 295 290 285 281 281 280 278 278 281 283 283 283 283 281 276 274 274 275 273 270 267 266 266 266 262 248 249
129 134 135 122 78 315 333 332 317 313 313 310 305 303 303 303 298 294 290 290 290 288 287 285 284 284 284 284 282 278 272 268 269 270 270 268 267 268 269 268 266 260 251
136 165 314 333 325 304 310 315 313 309 307 302 303 307 303 299 298 298 300 298 296 293 292 290 289 287 285 282 279 276 275 272 270 269 269 267 267 266 265 262 266 267 261
99 325 323 320 310 308 308 308 306 302 302 302 302 300 298 297 297 299 299 297 295 294 291 290 290 287 284 281 277 275 272 273 273 272 270 267 267 271 266 258 260 264 265
338 310 309 308 305 306 307 308 307 305 302 300 299 299 299 300 299 299 299 296 295 292 291 289 287 283 281 282 279 277 274 274 275 274 277 276 273 263 257 256 258 262 267
314 307 308 304 298 300 302 305 306 302 302 301 301 300 300 298 301 298 297 296 296 295 292 291 289 286 285 282 282 279 273 272 271 272 273 276 271 265 261 257 254 254 255
312 307 303 302 301 302 306 306 304 302 301 299 299 302 300 301 301 298 298 299 299 295 294 293 293 294 295 291 286 282 273 268 265 265 268 271 267 264 260 257 255 252 249
311 311 308 305 304 303 302 303 302 304 302 302 303 300 301 303 300 299 298 297 295 293 293 297 299 301 301 298 291 285 277 269 264 261 260 258 258 260 259 255 251 248 250
310 306 303 304 308 309 307 308 307 305 301 298 301 302 302 300 299 298 299 296 294 296 302 303 302 301 299 299 296 289 286 284 277 273 266 259 259 258 253 254 254 241 242
307 307 307 306 307 308 311 312 307 302 301 302 303 302 302 302 300 301 299 292 292 291 288 287 285 287 285 285 283 280 277 274 275 275 273 263 256 252 257 256 254 247 245